Location: Sungai Dangang
(2.7500°N, 113.8333°E)
Time: 19:19:21
(UTC+00:00)

Ariane H10+ - Pass Details

Date: 01 October 2021
Orbit: 237 x 7755 km, 6.8° (Epoch: 21 October)

Event Time Altitude Azimuth Distance (km) Brightness Sun altitude
Exits shadow 17:38:36 28° 104° (ESE) 4,135 5.7 -68.9°
Drops below altitude 10° 17:49:21 10° 93° (E) 7,395 7.2 -66.2°
Sets 17:59:22 0° 90° (E) 9,922 8.1 -63.7°
